When you browse on this site, cookies collect data to enhance your experience and personalize the content and advertising you see.
Visit our Privacy Policy to learn more. By continuing to use the site, you agree to this use of cookies and data.
  • în România
  • Lista ţărilor
  • Pe 7 zile
  • Temperatura apei
  • Meteo pe hartă
  • Widget-uri
  • user-avatar
    Intrare

    Meteo pe oră la Castlebar

    Astăzi, 22 August, Joi

    Timp Temperatura Precipitaţii Vânt Presiune Umiditate
    00:00 +12°C° 0 mm 4 m/s 757 mmHg 92%
    01:00 +12°C° 0 mm 4 m/s 757 mmHg 91%
    02:00 +12°C° 0 mm 4 m/s 757 mmHg 90%
    03:00 +13°C° 0.1 mm 5 m/s 757 mmHg 91%
    04:00 +14°C° 0.1 mm 5 m/s 757 mmHg 92%
    05:00 +14°C° 0.1 mm 6 m/s 757 mmHg 94%
    06:00 +14°C° 0.6 mm 6 m/s 757 mmHg 94%
    07:00 +14°C° 0.6 mm 6 m/s 757 mmHg 95%
    08:00 +15°C° 0.6 mm 6 m/s 757 mmHg 96%
    09:00 +15°C° 0.5 mm 7 m/s 757 mmHg 95%
    10:00 +15°C° 0.5 mm 7 m/s 757 mmHg 95%
    11:00 +16°C° 0.5 mm 8 m/s 757 mmHg 94%
    12:00 +16°C° 0.1 mm 8 m/s 757 mmHg 93%
    13:00 +16°C° 0.1 mm 7 m/s 757 mmHg 92%
    14:00 +16°C° 0.1 mm 7 m/s 758 mmHg 91%
    15:00 +16°C° 0.1 mm 6 m/s 758 mmHg 91%
    16:00 +15°C° 0.1 mm 6 m/s 758 mmHg 92%
    17:00 +15°C° 0.1 mm 6 m/s 758 mmHg 92%
    18:00 +15°C° 0 mm 6 m/s 759 mmHg 92%
    19:00 +15°C° 0 mm 5 m/s 759 mmHg 93%
    20:00 +15°C° 0 mm 5 m/s 759 mmHg 93%
    21:00 +15°C° 0 mm 5 m/s 759 mmHg 93%
    22:00 +15°C° 0 mm 5 m/s 759 mmHg 93%
    23:00 +14°C° 0 mm 5 m/s 759 mmHg 94%

    Mâine, 23 August, Vineri

    Timp Temperatura Precipitaţii Vânt Presiune Umiditate
    00:00 +14°C° 0 mm 5 m/s 759 mmHg 93%
    01:00 +15°C° 0 mm 5 m/s 759 mmHg 92%
    02:00 +15°C° 0 mm 5 m/s 759 mmHg 91%
    03:00 +14°C° 0 mm 4 m/s 759 mmHg 92%
    04:00 +14°C° 0 mm 4 m/s 759 mmHg 94%
    05:00 +13°C° 0 mm 4 m/s 758 mmHg 95%
    06:00 +15°C° 0 mm 5 m/s 759 mmHg 90%
    07:00 +16°C° 0 mm 6 m/s 759 mmHg 85%
    08:00 +17°C° 0 mm 7 m/s 759 mmHg 80%
    09:00 +17°C° 0 mm 7 m/s 759 mmHg 77%
    10:00 +18°C° 0 mm 7 m/s 759 mmHg 74%
    11:00 +20°C° 0 mm 7 m/s 758 mmHg 71%
    12:00 +20°C° 0 mm 7 m/s 758 mmHg 71%
    13:00 +20°C° 0 mm 6 m/s 758 mmHg 72%
    14:00 +20°C° 0 mm 6 m/s 758 mmHg 72%
    15:00 +19°C° 0 mm 5 m/s 758 mmHg 73%
    16:00 +19°C° 0 mm 5 m/s 757 mmHg 74%
    17:00 +18°C° 0 mm 4 m/s 757 mmHg 75%
    18:00 +18°C° 0 mm 4 m/s 757 mmHg 76%
    19:00 +17°C° 0 mm 4 m/s 757 mmHg 77%
    20:00 +15°C° 0 mm 4 m/s 757 mmHg 78%
    21:00 +15°C° 0 mm 4 m/s 757 mmHg 78%
    22:00 +15°C° 0 mm 4 m/s 756 mmHg 77%
    23:00 +15°C° 0 mm 4 m/s 756 mmHg 77%

    Poimâine, 24 August, Sâmbătă

    Timp Temperatura Precipitaţii Vânt Presiune Umiditate
    00:00 +14°C° 0 mm 4 m/s 756 mmHg 79%
    01:00 +14°C° 0 mm 4 m/s 756 mmHg 81%
    02:00 +14°C° 0 mm 3 m/s 756 mmHg 83%
    03:00 +13°C° 0.2 mm 3 m/s 755 mmHg 86%
    04:00 +13°C° 0.2 mm 3 m/s 755 mmHg 88%
    05:00 +13°C° 0.2 mm 3 m/s 755 mmHg 91%
    06:00 +14°C° 0.2 mm 3 m/s 755 mmHg 91%
    07:00 +14°C° 0.2 mm 3 m/s 755 mmHg 91%
    08:00 +14°C° 0.2 mm 3 m/s 756 mmHg 91%
    09:00 +16°C° 0.4 mm 3 m/s 756 mmHg 92%
    10:00 +16°C° 0.4 mm 2 m/s 756 mmHg 92%
    11:00 +16°C° 0.4 mm 2 m/s 756 mmHg 92%
    12:00 +16°C° 0.3 mm 2 m/s 756 mmHg 92%
    13:00 +16°C° 0.3 mm 2 m/s 756 mmHg 92%
    14:00 +16°C° 0.3 mm 1 m/s 756 mmHg 92%
    15:00 +16°C° 0.3 mm 1 m/s 756 mmHg 92%
    16:00 +16°C° 0.3 mm 1 m/s 756 mmHg 92%
    17:00 +16°C° 0.3 mm 1 m/s 756 mmHg 92%
    18:00 +15°C° 0 mm 1 m/s 757 mmHg 92%
    19:00 +15°C° 0 mm 1 m/s 757 mmHg 93%
    20:00 +14°C° 0 mm 1 m/s 758 mmHg 93%
    21:00 +14°C° 0 mm 1 m/s 758 mmHg 93%
    22:00 +13°C° 0 mm 1 m/s 758 mmHg 93%
    23:00 +13°C° 0 mm 1 m/s 758 mmHg 93%

    25 August, Duminică

    Timp Temperatura Precipitaţii Vânt Presiune Umiditate
    00:00 +12°C° 0 mm 1 m/s 758 mmHg 93%
    01:00 +12°C° 0 mm 1 m/s 758 mmHg 93%
    02:00 +12°C° 0 mm 1 m/s 758 mmHg 93%
    03:00 +12°C° 0 mm 1 m/s 758 mmHg 93%
    04:00 +11°C° 0 mm 1 m/s 758 mmHg 93%
    05:00 +11°C° 0 mm 1 m/s 759 mmHg 93%
    06:00 +13°C° 0 mm 1 m/s 759 mmHg 90%
    07:00 +15°C° 0 mm 1 m/s 759 mmHg 86%
    08:00 +16°C° 0 mm 1 m/s 759 mmHg 82%
    09:00 +18°C° 0 mm 1 m/s 759 mmHg 77%
    10:00 +19°C° 0 mm 1 m/s 759 mmHg 73%
    11:00 +19°C° 0 mm 2 m/s 759 mmHg 68%
    12:00 +19°C° 0 mm 2 m/s 759 mmHg 68%
    13:00 +19°C° 0 mm 2 m/s 759 mmHg 68%
    14:00 +19°C° 0 mm 3 m/s 759 mmHg 68%
    15:00 +18°C° 0 mm 3 m/s 759 mmHg 72%
    16:00 +17°C° 0 mm 3 m/s 759 mmHg 76%
    17:00 +16°C° 0 mm 3 m/s 759 mmHg 80%
    18:00 +14°C° 0 mm 3 m/s 759 mmHg 83%
    19:00 +14°C° 0 mm 3 m/s 759 mmHg 86%
    20:00 +13°C° 0 mm 3 m/s 759 mmHg 89%
    21:00 +13°C° 0 mm 4 m/s 759 mmHg 87%
    22:00 +13°C° 0 mm 4 m/s 758 mmHg 85%
    23:00 +14°C° 0 mm 5 m/s 758 mmHg 84%

    26 August, Luni

    Timp Temperatura Precipitaţii Vânt Presiune Umiditate
    00:00 +14°C° 0 mm 5 m/s 758 mmHg 86%
    01:00 +14°C° 0 mm 5 m/s 758 mmHg 89%
    02:00 +15°C° 0 mm 5 m/s 758 mmHg 92%
    03:00 +15°C° 0 mm 4 m/s 758 mmHg 93%
    04:00 +15°C° 0 mm 4 m/s 758 mmHg 94%
    05:00 +15°C° 0 mm 4 m/s 759 mmHg 95%
    06:00 +17°C° 0.2 mm 4 m/s 759 mmHg 95%
    07:00 +17°C° 0.2 mm 4 m/s 759 mmHg 95%
    08:00 +17°C° 0.2 mm 4 m/s 759 mmHg 95%
    09:00 +18°C° 0.1 mm 4 m/s 759 mmHg 94%
    10:00 +18°C° 0.1 mm 4 m/s 759 mmHg 93%
    11:00 +19°C° 0.1 mm 4 m/s 759 mmHg 92%
    12:00 +19°C° 0 mm 5 m/s 759 mmHg 92%
    13:00 +19°C° 0 mm 5 m/s 759 mmHg 91%
    14:00 +19°C° 0 mm 5 m/s 759 mmHg 90%
    15:00 +19°C° 0 mm 5 m/s 759 mmHg 91%
    16:00 +19°C° 0 mm 5 m/s 759 mmHg 91%
    17:00 +19°C° 0 mm 5 m/s 759 mmHg 92%
    18:00 +17°C° 0 mm 5 m/s 759 mmHg 93%
    19:00 +17°C° 0 mm 5 m/s 759 mmHg 94%
    20:00 +16°C° 0 mm 5 m/s 759 mmHg 95%
    21:00 +17°C° 0 mm 4 m/s 759 mmHg 95%
    22:00 +17°C° 0 mm 4 m/s 759 mmHg 94%
    23:00 +17°C° 0 mm 4 m/s 759 mmHg 94%

    27 August, Marţi

    Timp Temperatura Precipitaţii Vânt Presiune Umiditate
    00:00 +15°C° 0 mm 4 m/s 758 mmHg 93%
    01:00 +15°C° 0 mm 4 m/s 758 mmHg 93%
    02:00 +15°C° 0 mm 4 m/s 757 mmHg 92%
    03:00 +15°C° 0 mm 4 m/s 757 mmHg 92%
    04:00 +15°C° 0 mm 4 m/s 757 mmHg 92%
    05:00 +15°C° 0 mm 4 m/s 757 mmHg 93%
    06:00 +15°C° 0 mm 4 m/s 757 mmHg 90%
    07:00 +17°C° 0 mm 4 m/s 757 mmHg 88%
    08:00 +16°C° 0 mm 5 m/s 757 mmHg 86%
    09:00 +17°C° 0 mm 5 m/s 756 mmHg 85%
    10:00 +17°C° 0 mm 5 m/s 756 mmHg 84%
    11:00 +17°C° 0 mm 5 m/s 756 mmHg 84%
    12:00 +18°C° 0.1 mm 4 m/s 756 mmHg 86%
    13:00 +17°C° 0.1 mm 4 m/s 756 mmHg 88%
    14:00 +17°C° 0.1 mm 3 m/s 755 mmHg 91%
    15:00 +16°C° 0.6 mm 3 m/s 755 mmHg 92%
    16:00 +16°C° 0.6 mm 3 m/s 755 mmHg 94%
    17:00 +16°C° 0.6 mm 3 m/s 755 mmHg 95%
    18:00 +16°C° 0.6 mm 3 m/s 755 mmHg 95%
    19:00 +16°C° 0.6 mm 3 m/s 755 mmHg 96%
    20:00 +14°C° 0.6 mm 3 m/s 755 mmHg 96%
    21:00 +14°C° 0.1 mm 3 m/s 754 mmHg 96%
    22:00 +14°C° 0.1 mm 4 m/s 754 mmHg 96%
    23:00 +14°C° 0.1 mm 4 m/s 754 mmHg 96%
    Arată mai mult